Regional Weather Roundup
Issued by NWS

Current Version | Previous Version | Text Only | Print | Product List | Glossary On
Versions: 1 2 3 4 5 6 7 8 9 10 11 12 13 14 15 16 17 18 19 20 21 22 23 24 25 26 27 28 29 30 31 32 33 34 35 36 37 38 39 40 41 42 43 44 45 46 47 48 49 50
000
ASUS42 KFFC 161810
RWRGA
WEATHER ROUNDUP FOR GEORGIA
NATIONAL WEATHER SERVICE PEACHTREE CITY GA
200 PM EDT WED AUG 16 2017

NOTE: "FAIR" INDICATES FEW OR NO CLOUDS BELOW 12,000 FEET WITH NO
SIGNIFICANT WEATHER AND/OR OBSTRUCTIONS TO VISIBILITY.

* = USE WITH CAUTION. THE STATIONS MARKED WITH AN ASTERISK MAY NOT
REPORT WEATHER SUCH AS PRECIPITATION, FOG, OR THUNDER AND ARE NOT
QUALITY CONTROLLED BY NWS.

THE REMARK "TC" DENOTES TEMPERATURE READING IN DEGREES CELSIUS.

GAZ001>058-161900-
NORTH GEORGIA

CITY           SKY/WX    TMP DP  RH WIND       PRES   REMARKS
ATLANTA        MOSUNNY   89  72  56 SW6       30.09S HX  96
6HR MIN TEMP:  74; 6HR MAX TEMP:  89;

ATHENS         MOSUNNY   91  74  57 VRB7      30.07S HX 100
6HR MIN TEMP:  76; 6HR MAX TEMP:  91;

CHAMBLEE       MOSUNNY   90  72  55 W9        30.09S HX  97
6HR MIN TEMP:  75; 6HR MAX TEMP:  90;

PEACHTREE CITY MOSUNNY   88  73  61 CALM      30.09F HX  95
6HR MIN TEMP:  73; 6HR MAX TEMP:  88;

ROME           SUNNY     88  76  67 SW8       30.07F HX  99
6HR MIN TEMP:  74; 6HR MAX TEMP:  88;

WEST ATLANTA   MOSUNNY   90  75  61 N3        30.08F HX 100
6HR MIN TEMP:  75; 6HR MAX TEMP:  90;

GAINESVILLE    MOSUNNY   88  73  61 W8        30.11F HX  95
6HR MIN TEMP:  74; 6HR MAX TEMP:  89;

CARTERSVILLE   PTSUNNY   88  75  65 CALM      30.08F HX  97
6HR MIN TEMP:  73; 6HR MAX TEMP:  88;



CITY           SKY/WX    TMP DP  RH WIND       PRES   REMARKS
LAWRENCEVILLE* MOSUNNY   88  73  62 W7        30.10F HX  96
MARIETTA       PTSUNNY   87  71  59 W5        30.09F HX  93
KENNESAW*      PTSUNNY   88  73  61 W7        30.10F HX  95
CANTON*        SUNNY     88  73  62 W5        30.11F HX  96
$$

GAZ059>098-102>109-161900-
CENTRAL GEORGIA

CITY           SKY/WX    TMP DP  RH WIND       PRES   REMARKS
AUGUSTA-BUSH   SUNNY     96  71  44 NW6       30.01F HX 103
6HR MIN TEMP:  81; 6HR MAX TEMP:  97;

AUGUSTA-DANIEL SUNNY     95  69  42 N9        30.04F HX 100
6HR MIN TEMP:  81; 6HR MAX TEMP:  95;

COLUMBUS       PTSUNNY   90  74  59 VRB7      30.08S HX  99
6HR MIN TEMP:  76; 6HR MAX TEMP:  90;

MACON          MOSUNNY   91  73  55 W9        30.06F HX 100
ROBINS AFB     MOSUNNY   92  74  56 W8        30.05F HX 101


CITY           SKY/WX    TMP DP  RH WIND       PRES   REMARKS
LAGRANGE*      PTSUNNY   88  76  67 CALM      30.10S HX  98
SYLVANIA*      MOSUNNY   95  79  59 W7        30.04S HX 112
MILLEDGEVILLE* SUNNY     91  73  55 W3        30.05F HX 100
$$

GAZ099>101-110>166-161900-
SOUTH GEORGIA

CITY           SKY/WX    TMP DP  RH WIND       PRES   REMARKS
SAVANNAH       MOSUNNY   95  74  50 SW7       30.03S HX 105
6HR MIN TEMP:  79; 6HR MAX TEMP:  96;

VALDOSTA       SUNNY     91  74  57 CALM      30.06F HX 100
6HR MIN TEMP:  76; 6HR MAX TEMP:  92;

ALMA           MOSUNNY   93  74  53 NW7       30.06F HX 103
6HR MIN TEMP:  78; 6HR MAX TEMP:  93;

ST SIMONS      SUNNY     95  74  50 SW9       30.03F HX 105
6HR MIN TEMP:  80; 6HR MAX TEMP:  95;

FT STEWART     MOSUNNY   94  73  50 SW8       30.01F HX 102
ALBANY         PTSUNNY   92  74  55 W6        30.09F HX 101
HUNTER AFB     SUNNY     94  77  56 SW10      30.00F HX 108
MOODY AFB      MOSUNNY   91  73  56 NW5       30.05F HX  99
BRUNSWICK      MOSUNNY   91  72  52 W5        30.04F HX  98


CITY           SKY/WX    TMP DP  RH WIND       PRES   REMARKS
BAINBRIDGE*    MOSUNNY   91  79  66 W6        30.08F HX 107
MOULTRIE*      PTSUNNY   88  73  62 NW6       30.08F HX  96
VIDALIA*       MOSUNNY   93  75  55 NW6       30.05F HX 104
WAYCROSS*      PTSUNNY   93  71  48 W8        30.05F HX  99
DOUGLAS*       MOSUNNY   90  72  55 W6        30.08F HX  96
$$




USA.gov is the U.S. government's official web portal to all federal, state and local government web resources and services.